Showing default

ERS 15, 2412

Orbit data source: Space-Track

ERS 15, 2412 is a payload satellite owned by USAF SSD (US) in LEO that was launched on Fri, 19 Aug 1966 UTC via an ATLAS SLV-3 AGENA D launch vehicle from the Air Force Western Test Range (AFWTR). Payload-class satellites include a variety of spacecraft equipped with specific instruments for various scientific and technological missions. These include communications satellites like Starlink; space stations such as the ISS; scientific satellites like the Hubble; Earth observation satellites from companies like Planet Labs, Umbra, and HawkEye 360; GPS; miniature CubeSats for education and research; and military/defense satellites.

Loading next visibility...
Identifier
2412, 1966-077C
Orbit
LEO
Country
Flag of USUS
Related business
Manufacturer
TRW
Mission
Spacecraft
Bus & Motor
ORS, Unknown motor
Mass
5 kg wet, 5 kg dry
Launch date (UTC)
1966-08-19 (59 years ago)
Launch vehicle
ATLAS SLV-3 AGENA D
Launch site
Air Force Western Test Range (AFWTR)
Object type
Payload
Rocket body
Debris
Shape & HBR
Unknown
Radar Cross Section
Medium (>0.1 m² and <1 m²)

Expand to show TLE details & history
Last TLE update: 11 hours ago

TLE from 11 hours ago
0 ERS 15
1 02412U 66077C   25294.39410040  .00000002  00000-0  00000-0 0  9990
2 02412  90.3278 274.4447 0006856 310.9388  49.0870  8.59078629369953
Epoch: 2025-10-21T09:27Z
TLE epoch observation values (Epoch: 2025-10-21T09:27:30.274Z)
Latitude
0.00005°
Longitude
102.48587°
Altitude
3,689.925 km
Speed
6.294 km/s
True Right ascension
18h 17m 46s
True Declination
0° 00' 00"
Sunlit
Object was in daylight at epoch
Visualization orbit readout
Latitude
Unknown
Longitude
Unknown
Altitude
Unknown
Speed
Unknown
Apparent Right ascension
Unknown
Apparent Declination
Unknown
Sunlit
N/A
Visualization observer readout
Local Sidereal Time
15:34:18
Azimuth
Unknown
Elevation
Unknown
Doppler factor
Unknown
Orbital elements
Apogee altitude
3,696.982 km
Perigee altitude
3,683.177 km
Semi-major axis
10,068.216 km
Eccentricity
0.00069
Inclination
90.3278°
RAAN
274.4447°
Arg. of periapsis
310.9388°
True anomaly
49.1464°
Mean anomaly
49.087°
Eccentric anomaly
49.1167°
Mean motion
2.1484 °/min
Orbital period
167.57 mins
BSTAR
0
Loading maneuver chart data...
Computing Atmospheric mass density...
Loading historical data...
Loading historical data...
Loading historical data...
Loading historical data...
Loading historical data...
Loading historical data...
Loading historical data...

Documentation

Showing up to 5 results
|